Weather in Cognac

France     45°41′34″N   0°19′28″E
temp.,
°C
wind,
m/s
gust,
m/s
humid.,
%
clouds,
%
prec.,
mm/h
press.,
hPa
HPBL,
m
4 march, thu
thu401:00+9sse01917 0.0 102622
04:00+8sse229210 0.0 102522
07:00+7se239230 0.0 102427
10:00+10sse228333 0.0 1024245
13:00+14nw007161 0.0 1023629
16:00+15n2268100 0.0 1021913
19:00+11n3481100 0.0 102081
22:00+9ne4983100 0.0 1021246
5 march, fri
fri501:00+8ne498898 0.0 1021259
04:00+7ne498981 0.0 1021261
07:00+5ne5109274 0.0 1021263
10:00+7ne710861 0.0 1022462
13:00+10ne7107412 0.0 1022692
16:00+10ne710700 0.0 1022791
19:00+7ne612760 0.0 1023667
22:00+5ne613810 0.0 1025548
6 march, sat
sat601:00+4ne612810 0.0 1025399
04:00+2ne612790 0.0 1025391
07:00+1ne611840 0.0 1026307
10:00+3ne610730 0.0 1026425
13:00+9ne68620 0.0 1026765
16:00+10ne57610 0.0 1025915
19:00+6nne410750 0.0 1025275
22:00+4ne48800 0.0 1026206
7 march, sun
sun701:00+2ne35880 0.0 1026114
04:00+1ne33890 0.0 102586
07:000ne33920 0.0 102559
10:00+4ne12770 0.0 1025253
13:00+10nnw11620 0.0 1024641
16:00+11nnw22530 0.0 10221084
19:00+7n23720 0.0 102227
22:00+4ne357821 0.0 102391
8 march, mon
mon801:00+3ne237711 0.0 102349
04:00+1nne23760 0.0 102241
07:000nne23790 0.0 102239
10:00+5nne34640 0.0 1023306
13:00+9nne34510 0.0 10231046
16:00+10n44450 0.0 10221259
19:00+6n34640 0.0 102238
22:00+3nnw23740 0.0 102424